Regional Weather Roundup
Issued by NWS

Home | Current Version | Previous Version | Text Only | Print | Product List | Glossary On
Versions: 1 2 3 4 5 6 7 8 9 10 11 12 13 14 15 16 17 18 19 20 21 22 23 24 25 26 27 28 29 30 31 32 33 34 35 36 37 38 39 40 41 42 43 44 45 46 47 48 49 50
000
ASUS43 KBIS 030310
RWRND

NORTH DAKOTA REGIONAL WEATHER ROUNDUP
NATIONAL WEATHER SERVICE BISMARCK ND
1000 PM CDT TUE SEP 02 2014

NOTE: "FAIR" INDICATES FEW OR NO CLOUDS BELOW 12,000 FEET WITH NO
SIGNIFICANT WEATHER AND/OR OBSTRUCTIONS TO VISIBILITY.


NDZ001>003-009>011-017-030400-
NORTHWEST NORTH DAKOTA

CITY           SKY/WX    TMP DP  RH WIND       PRES   REMARKS
WILLISTON      PTCLDY    55  48  77 W3        29.74R
MINOT          PTCLDY    59  46  62 NW3       29.75R
MINOT AFB      PTCLDY    55  51  87 SW2       29.74R
$$

NDZ018>021-031>035-040>046-030400-
SOUTHWEST NORTH DAKOTA

CITY           SKY/WX    TMP DP  RH WIND       PRES   REMARKS
BISMARCK       MOCLDY    58  53  84 CALM      29.78R
DICKINSON      CLEAR     52  45  77 S6        29.78S
GARRISON         N/A     57  51  80 CALM      29.76R
HETTINGER ARPT CLEAR     59  45  59 NE3       29.80S
$$

NDZ004>008-012>016-024-026-027-054-030400-
NORTHEAST NORTH DAKOTA

CITY           SKY/WX    TMP DP  RH WIND       PRES   REMARKS
GRAND FORKS    PTCLDY    65  53  65 SW8       29.70R
GRND FRKS AFB  PTCLDY    60  56  88 SW9       29.72R
DEVILS LAKE    CLEAR     63  50  63 W6        29.73R
$$

NDZ022-023-025-028>030-036>039-047>053-030400-
SOUTHEAST NORTH DAKOTA

CITY           SKY/WX    TMP DP  RH WIND       PRES   REMARKS
FARGO          PTCLDY    66  57  72 S3        29.74R
JAMESTOWN      PTCLDY    58  54  86 CALM      29.76R
$$



USA.gov is the U.S. government's official web portal to all federal, state and local government web resources and services.